Terug naar catalogus

STARLINK-34981

ActiefCommunicatieVLEO
NORAD 65198·PAYLOAD·🇺🇸 United States

Gelanceerd Aug 14, 2025 vanaf Cape Canaveral Space Force Station

Loading…

Volgende Passages (komende 24 uur)

TLE

VersSource: CelesTrak SupGP

Epoch: Sep 15, 2026, 02:32 UTC

1 65198C 25176A   26258.10604167  .00068020  00000+0  20093-2 0  2587
2 65198  53.1593 354.6372 0001122  91.2081  14.2592 15.34362319    15

Volg STARLINK-34981 in realtime met AllMySat

Download on the App Store